Location: *
(43.9905°S, 176.4941°W)
Time: 07:07:44
(UTC+00:00)

SeaSat 1 - Pass Details

Date: 08 December 2019
Orbit: 744 x 747 km, 108.0° (Epoch: 19 January)

Event Time Altitude Azimuth Distance (km) Brightness Sun altitude
Rises 09:31:47 0° 152° (SSE) 3,227 6.2 -17.3°
Reaches altitude 10° 09:34:05 10° 150° (SSE) 2,295 5.3 -17.5°
Maximum altitude 09:39:04 74° 64° (ENE) 789 2.4 -18.0°
Enters shadow 09:42:20 22° 342° (NNW) 1,613 3.8 -18.3°
